STARLINK-5689, 55474

Orbit data source: Space-Track

STARLINK-5689, 55474 is a payload satellite owned by SpaceX/Seattle (US) in LEO that was launched on Thu, 02 Feb 2023 UTC via an FALCON 9 launch vehicle from the Air Force Eastern Test Range (AFETR). Payload-class satellites include a variety of spacecraft equipped with specific instruments for various scientific and technological missions. These include communications satellites like Starlink; space stations such as the ISS; scientific satellites like the Hubble; Earth observation satellites from companies like Planet Labs, Umbra, and HawkEye 360; GPS; miniature CubeSats for education and research; and military/defense satellites.

Loading next visibility...
Identifier
55474, 2023-015AB
Orbit
LEO
Country
Flag of USUS
Related business
Manufacturer
SpaceX/Seattle
Mission
Operational Commercial Communications
Bus & Motor
STARLINK, Unknown motor
Mass
305 kg wet, ~290 kg dry
Launch date (UTC)
2023-02-02 (4 years ago)
Launch vehicle
FALCON 9
Launch site
Air Force Eastern Test Range (AFETR)
Object type
Payload
Rocket body
Debris
Shape & HBR
Box + 1 Pan, 10.1 m
Radar Cross Section
13.562 m², Large (>1 m²)

Expand to show TLE details & history
Last TLE update: 10 hours ago

TLE from 10 hours ago
0 STARLINK-5689
1 55474U 23015AB  26258.25975583  .00001242  00000-0  54673-4 0  9991
2 55474  43.0053 349.4768 0001806 273.4205  86.6440 15.27575018199582
Epoch: 2026-09-15T06:14Z
TLE epoch observation values (Epoch: 2026-09-15T06:14:02.903Z)
Latitude
-0.00004°
Longitude
-98.26359°
Altitude
482.768 km
Speed
7.626 km/s
True Right ascension
23h 17m 54s
True Declination
0° 00' 00"
Sunlit
Object was in full shadow at epoch
Visualization orbit readout
Latitude
Unknown
Longitude
Unknown
Altitude
Unknown
Speed
Unknown
Apparent Right ascension
Unknown
Apparent Declination
Unknown
Sunlit
N/A
Visualization observer readout
Local Sidereal Time
08:46:57
Azimuth
Unknown
Elevation
Unknown
Doppler factor
Unknown
Orbital elements
Apogee altitude
486.248 km
Perigee altitude
483.769 km
Semi-major axis
6,863.145 km
Eccentricity
0.00018
Inclination
43.0053°
RAAN
349.4768°
Arg. of periapsis
273.4205°
True anomaly
86.66466°
Mean anomaly
86.644°
Eccentric anomaly
86.65433°
Mean motion
3.81732 °/min
Orbital period
94.31 mins
BSTAR
0.000054673
Loading maneuver chart data...
Computing Atmospheric mass density...
Loading historical data...
Loading historical data...
Loading historical data...
Loading historical data...
Loading historical data...
Loading historical data...
Loading historical data...

Documentation

Showing up to 5 results
|